Time,TemperatureF,DewpointF,PressureIn,WindDirection,WindDirectionDegrees,WindSpeedMPH,WindSpeedGustMPH,Humidity,HourlyPrecipIn,Conditions,Clouds,dailyrainin,SoftwareType,DateUTC
2013-06-16 00:00:00,53.7,52.6,29.96,South,176,0.0,0.0,96,0.00,,,0.00,Wunderground v.1.15,2013-06-16 04:00:00,
2013-06-16 00:05:00,53.6,52.5,29.96,South,176,0.0,0.0,96,0.00,,,0.00,Wunderground v.1.15,2013-06-16 04:05:00,
2013-06-16 00:10:00,53.4,52.3,29.96,South,176,0.0,0.0,96,0.00,,,0.00,Wunderground v.1.15,2013-06-16 04:10:00,
2013-06-16 00:15:00,53.4,52.3,29.96,South,176,0.0,0.0,96,0.00,,,0.00,Wunderground v.1.15,2013-06-16 04:15:00,
2013-06-16 00:20:00,53.2,52.1,29.96,South,176,0.0,0.0,96,0.00,,,0.00,Wunderground v.1.15,2013-06-16 04:20:00,
2013-06-16 03:00:00,50.6,49.8,29.96,South,176,0.0,0.0,97,0.00,,,0.00,Wunderground v.1.15,2013-06-16 07:00:00,
2013-06-16 03:10:00,50.4,49.6,29.97,South,176,0.0,0.0,97,0.00,,,0.00,Wunderground v.1.15,2013-06-16 07:10:00,
2013-06-16 03:15:00,50.3,49.5,29.96,South,176,0.0,0.0,97,0.00,,,0.00,Wunderground v.1.15,2013-06-16 07:15:00,
2013-06-16 10:40:00,72.1,59.7,29.92,NW,316,0.0,1.0,65,0.00,,,0.00,Wunderground v.1.15,2013-06-16 14:40:00,
2013-06-16 10:45:00,72.1,58.8,29.92,WNW,301,0.0,1.0,63,0.00,,,0.00,Wunderground v.1.15,2013-06-16 14:45:00,
2013-06-16 10:50:00,72.5,57.4,29.92,WNW,285,0.0,1.0,59,0.00,,,0.00,Wunderground v.1.15,2013-06-16 14:50:00,
2013-06-16 11:00:00,72.9,57.3,29.92,WSW,242,0.0,1.0,58,0.00,,,0.00,Wunderground v.1.15,2013-06-16 15:00:00,
2013-06-16 11:10:00,73.3,60.8,29.91,WSW,245,0.0,0.0,65,0.00,,,0.00,Wunderground v.1.15,2013-06-16 15:10:00,
2013-06-16 11:15:00,72.9,61.7,29.91,WSW,248,0.0,0.0,68,0.00,,,0.00,Wunderground v.1.15,2013-06-16 15:15:00,
2013-06-16 11:20:00,73.0,58.3,29.91,SSE,160,0.0,0.0,60,0.00,,,0.00,Wunderground v.1.15,2013-06-16 15:20:00,
2013-06-16 11:30:00,73.7,58.0,29.90,WSW,249,0.0,0.0,58,0.00,,,0.00,Wunderground v.1.15,2013-06-16 15:30:00,
2013-06-16 12:25:00,76.2,58.3,29.88,North,6,0.0,2.0,54,0.00,,,0.00,Wunderground v.1.15,2013-06-16 16:25:00,
2013-06-16 12:35:00,76.3,56.3,29.87,SE,126,1.0,3.0,50,0.00,,,0.00,Wunderground v.1.15,2013-06-16 16:35:00,
2013-06-16 12:40:00,76.3,56.3,29.87,WNW,293,1.0,4.0,50,0.00,,,0.00,Wunderground v.1.15,2013-06-16 16:40:00,
2013-06-16 12:45:00,76.9,55.1,29.87,NE,46,1.0,4.0,47,0.00,,,0.00,Wunderground v.1.15,2013-06-16 16:45:00,
2013-06-16 12:50:00,76.7,58.3,29.87,West,266,1.0,1.0,53,0.00,,,0.00,Wunderground v.1.15,2013-06-16 16:50:00,
2013-06-16 13:00:00,77.0,59.1,29.86,NNW,332,1.0,1.0,54,0.00,,,0.00,Wunderground v.1.15,2013-06-16 17:00:00,
2013-06-16 13:10:00,77.0,57.5,29.86,SSE,158,1.0,3.0,51,0.00,,,0.00,Wunderground v.1.15,2013-06-16 17:10:00,
2013-06-16 13:15:00,77.2,57.1,29.86,SE,145,2.0,3.0,50,0.00,,,0.00,Wunderground v.1.15,2013-06-16 17:15:00,
2013-06-16 13:20:00,77.4,56.7,29.86,SSE,165,2.0,2.0,49,0.00,,,0.00,Wunderground v.1.15,2013-06-16 17:20:00,
2013-06-16 13:30:00,77.7,56.4,29.85,SE,125,2.0,2.0,48,0.00,,,0.00,Wunderground v.1.15,2013-06-16 17:30:00,
2013-06-16 13:35:00,77.4,57.3,29.85,WNW,287,1.0,6.0,50,0.00,,,0.00,Wunderground v.1.15,2013-06-16 17:35:00,
2013-06-16 13:45:00,78.2,56.3,29.85,WSW,255,1.0,6.0,47,0.00,,,0.00,Wunderground v.1.15,2013-06-16 17:45:00,
2013-06-16 13:50:00,78.0,56.1,29.84,SE,129,1.0,6.0,47,0.00,,,0.00,Wunderground v.1.15,2013-06-16 17:50:00,
2013-06-16 13:55:00,77.3,57.2,29.84,South,176,1.0,6.0,50,0.00,,,0.00,Wunderground v.1.15,2013-06-16 17:55:00,
2013-06-16 14:00:00,76.9,56.8,29.84,South,176,0.0,0.0,50,0.00,,,0.00,Wunderground v.1.15,2013-06-16 18:00:00,
2013-06-16 14:10:00,75.2,56.4,29.83,South,176,0.0,0.0,52,0.00,,,0.00,Wunderground v.1.15,2013-06-16 18:10:00,
2013-06-16 19:40:00,69.3,64.9,29.75,South,176,0.0,6.0,86,0.00,,,0.00,Wunderground v.1.15,2013-06-16 23:40:00,